Location: Larkspur
(54.4391°N, 113.7691°W)
Time: 21:14:37
(UTC+00:00)

Oscar 19 - Visible Passes

Search period start: 29 November 2023 00:00
Search period end: 09 December 2023 00:00
Orbit: 771 x 789 km, 98.9° (Epoch: 29 November)

Date Brightness Start Highest point End Pass type
(mag) Time Alt. Az. Time Alt. Az. Time Alt. Az.
29 Nov 11.8 11:56:06 10° NNE 12:00:58 42° E 12:05:51 10° S visible
29 Nov 11.0 13:35:29 10° N 13:40:14 39° WNW 13:45:00 10° SW visible
30 Nov 13.7 01:02:42 10° WSW 01:04:55 13° W 01:07:07 10° WNW visible
30 Nov 12.7 11:24:11 10° NE 11:28:21 24° E 11:32:31 10° SE visible
30 Nov 10.5 13:02:57 10° NNE 13:08:04 66° WNW 13:13:09 10° SSW visible
30 Nov 12.1 14:43:26 10° N 14:46:28 16° NW 14:49:30 10° W visible
01 Dec 13.3 00:28:09 10° SW 00:32:06 22° W 00:36:05 10° NW visible
01 Dec 13.4 10:52:54 10° NE 10:55:35 14° E 10:58:15 10° ESE visible
01 Dec 10.7 12:30:34 10° NNE 12:35:44 75° ESE 12:40:54 10° S visible
01 Dec 11.6 14:10:29 10° N 14:14:34 24° NW 14:18:39 10° WSW visible
01 Dec 12.3 23:54:43 10° SSW 23:59:28 38° W 00:04:14 10° NNW visible
02 Dec 11.7 11:58:22 10° NNE 12:03:17 43° E 12:08:11 10° S visible
02 Dec 11.1 13:37:46 10° N 13:42:31 38° WNW 13:47:15 10° SW visible
03 Dec 13.7 01:05:12 10° WSW 01:07:14 12° W 01:09:16 10° WNW visible
03 Dec 12.7 11:26:25 10° NE 11:30:40 25° E 11:34:53 10° SSE visible
03 Dec 10.5 13:05:14 10° NNE 13:10:21 64° WNW 13:15:26 10° SSW visible
03 Dec 12.1 14:45:46 10° NNW 14:48:43 16° NW 14:51:41 10° W visible
04 Dec 13.3 00:30:31 10° SW 00:34:24 22° W 00:38:20 10° NW visible
04 Dec 13.4 10:55:05 10° NE 10:57:54 15° E 11:00:42 10° ESE visible
04 Dec 10.7 12:32:51 10° NNE 12:38:02 77° ESE 12:43:12 10° SSW visible
04 Dec 11.7 14:12:47 10° N 14:16:49 24° NW 14:20:51 10° WSW visible
04 Dec 12.4 23:57:02 10° SSW 00:01:45 37° W 00:06:30 10° NNW visible
05 Dec 11.7 12:00:37 10° NNE 12:05:34 44° E 12:10:30 10° S visible
05 Dec 11.1 13:40:04 10° N 13:44:47 37° WNW 13:49:30 10° SW visible
06 Dec 13.7 01:07:41 10° WSW 01:09:32 12° W 01:11:24 10° WNW visible
06 Dec 12.6 11:28:39 10° NE 11:32:58 26° E 11:37:15 10° SSE visible
06 Dec 10.6 13:07:31 10° NNE 13:12:37 62° WNW 13:17:42 10° SSW visible
06 Dec 12.1 14:48:05 10° NNW 14:50:58 15° NW 14:53:52 10° W visible
07 Dec 13.3 00:32:53 10° SW 00:36:43 21° W 00:40:34 10° NW visible
07 Dec 13.3 10:57:16 10° NE 11:00:12 15° E 11:03:08 10° ESE visible
07 Dec 10.7 12:35:07 10° NNE 12:40:19 79° ESE 12:45:29 10° SSW visible
07 Dec 11.7 14:15:05 10° N 14:19:04 23° NW 14:23:05 10° WSW visible
07 Dec 12.4 23:59:20 10° SSW 00:04:01 36° W 00:08:45 10° NNW visible
08 Dec 11.6 12:02:52 10° NNE 12:07:51 46° E 12:12:49 10° S visible
08 Dec 11.1 13:42:21 10° N 13:47:03 36° WNW 13:51:44 10° SW visible
